STARLINK-31751, 59574

Orbit data source: Space-Track

STARLINK-31751, 59574 is a payload satellite owned by SpaceX/Seattle (US) in LEO that was launched on Tue, 23 Apr 2024 UTC via an FALCON 9 launch vehicle from the Air Force Eastern Test Range (AFETR). Payload-class satellites include a variety of spacecraft equipped with specific instruments for various scientific and technological missions. These include communications satellites like Starlink; space stations such as the ISS; scientific satellites like the Hubble; Earth observation satellites from companies like Planet Labs, Umbra, and HawkEye 360; GPS; miniature CubeSats for education and research; and military/defense satellites.

Loading next visibility...
Identifier
59574, 2024-076L
Orbit
LEO
Country
Flag of USUS
Related business
Manufacturer
SpaceX/Seattle
Mission
Operational spacecraft
Bus & Motor
STARLINK V2M, Unknown motor
Mass
730 kg wet, ~700 kg dry
Launch date (UTC)
2024-04-23 (1 year ago)
Launch vehicle
FALCON 9
Launch site
Air Force Eastern Test Range (AFETR)
Object type
Payload
Rocket body
Debris
Shape & HBR
Unknown
Radar Cross Section
Large (>1 m²)

Expand to show TLE details & history
Last TLE update: 21 hours ago

TLE from 21 hours ago
0 STARLINK-31751
1 59574U 24076L   25257.43825643 -.00000712  00000-0 -16369-4 0  9996
2 59574  43.0028 284.7028 0001213 269.9645  90.1068 15.27572062 79544
Epoch: 2025-09-14T10:31Z
TLE epoch observation values (Epoch: 2025-09-14T10:31:05.355Z)
Latitude
Longitude
133.27323°
Altitude
482.85 km
Speed
7.626 km/s
True Right ascension
18h 58m 48s
True Declination
0° 00' 00"
Sunlit
Object was in full shadow at epoch
Visualization orbit readout
Latitude
Unknown
Longitude
Unknown
Altitude
Unknown
Speed
Unknown
Apparent Right ascension
Unknown
Apparent Declination
Unknown
Sunlit
N/A
Visualization observer readout
Local Sidereal Time
00:38:32
Azimuth
Unknown
Elevation
Unknown
Doppler factor
Unknown
Orbital elements
Apogee altitude
485.85 km
Perigee altitude
484.185 km
Semi-major axis
6,863.155 km
Eccentricity
0.00012
Inclination
43.0028°
RAAN
284.7028°
Arg. of periapsis
269.9645°
True anomaly
90.1207°
Mean anomaly
90.1068°
Eccentric anomaly
90.11375°
Mean motion
3.81731 °/min
Orbital period
94.31 mins
BSTAR
-0.000016369
Loading maneuver chart data...
Computing Atmospheric mass density...
Loading historical data...
Loading historical data...
Loading historical data...
Loading historical data...
Loading historical data...
Loading historical data...
Loading historical data...

Documentation

Showing up to 5 results
|